GW2061 Weather Reports


time (UTC)temp
F
wind
direction
speed
knots
gust
knots
rain 1hr
in
rain 24hr
in
rain mn
in
humidity
%
barometer
mb
20260503072209 64 6 0.0 0.0 0.00 0.00 0.00 57 1020.1
20260503071706 64 137 0.0 0.0 0.00 0.00 0.00 59 1020.1
20260503071203 63 124 0.0 0.0 0.00 0.00 0.00 64 1020.1
20260503070659 63 120 0.0 0.0 0.00 0.00 0.00 67 1020.3
20260503070158 63 98 0.0 0.9 0.00 0.00 0.00 67 1020.3
20260503060122 60 17 0.0 0.0 0.00 0.00 0.00 69 1019.9
20260503055114 59 37 0.0 0.9 0.00 0.00 0.00 73 1019.8
20260503054609 58 10 1.7 1.7 0.00 0.00 0.00 75 1019.8
20260503054106 58 31 0.9 0.9 0.00 0.00 0.00 76 1019.5
20260503053604 58 339 0.9 0.9 0.00 0.00 0.00 76 1019.4
20260503053102 57 7 1.7 1.7 0.00 0.00 0.00 77 1019.5
20260503052558 57 3 0.9 1.7 0.00 0.00 0.00 77 1019.7
20260503052055 57 34 1.7 1.7 0.00 0.00 0.00 78 1019.5
20260503051550 57 22 0.9 1.7 0.00 0.00 0.00 78 1019.3
20260503051048 57 16 0.0 0.9 0.00 0.00 0.00 78 1019.4
20260503050544 56 6 0.9 1.7 0.00 0.00 0.00 77 1019.7
20260503050041 56 3 0.9 1.7 0.00 0.00 0.00 75 1019.5
20260503045538 56 342 0.9 0.9 0.00 0.00 0.00 74 1019.4
20260503045036 56 96 0.0 0.0 0.00 0.00 0.00 73 1019.4
20260503044532 56 328 0.0 0.0 0.00 0.00 0.00 72 1019.3
20260503044030 56 3 0.0 0.0 0.00 0.00 0.00 72 1019.2
20260503043526 56 46 0.0 0.9 0.00 0.00 0.00 72 1019.3
20260503043023 56 339 0.0 0.0 0.00 0.00 0.00 73 1019.4
20260503042520 55 339 0.0 0.9 0.00 0.00 0.00 73 1019.4
20260503042016 55 13 0.9 0.9 0.00 0.00 0.00 74 1019.5
20260503041513 55 34 1.7 1.7 0.00 0.00 0.00 75 1019.3
20260503041011 55 12 1.7 1.7 0.00 0.00 0.00 73 1019.5
20260503040508 55 16 0.9 1.7 0.00 0.00 0.00 71 1019.5
20260503040005 55 9 1.7 2.6 0.00 0.00 0.00 69 1019.2
20260503035502 56 43 1.7 1.7 0.00 0.00 0.00 68 1019.1
20260503034959 56 14 2.6 2.6 0.00 0.00 0.00 67 1019.3
20260503034456 56 23 1.7 1.7 0.00 0.00 0.00 65 1019.3
20260503033953 56 8 0.9 0.9 0.00 0.00 0.00 64 1019.3
20260503033450 57 341 0.9 0.9 0.00 0.00 0.00 64 1019.3
20260503032949 57 17 1.7 2.6 0.00 0.00 0.00 64 1019.3
20260503032447 57 46 0.9 1.7 0.00 0.00 0.00 64 1019.7
20260503031944 57 6 0.9 1.7 0.00 0.00 0.00 64 1019.4
20260503031442 57 36 0.9 0.9 0.00 0.00 0.00 65 1019.4
20260503030938 57 5 1.7 1.7 0.00 0.00 0.00 65 1019.3
20260503030434 57 346 0.9 1.7 0.00 0.00 0.00 64 1019.5
20260503025931 57 358 0.0 0.0 0.00 0.00 0.00 63 1019.7
20260503025428 57 31 0.9 1.7 0.00 0.00 0.00 61 1019.4
20260503024926 57 34 0.9 0.9 0.00 0.00 0.00 61 1019.4
20260503024422 57 44 1.7 1.7 0.00 0.00 0.00 62 1019.7
20260503023920 57 23 1.7 1.7 0.00 0.00 0.00 64 1019.5
20260503023417 57 321 1.7 1.7 0.00 0.00 0.00 64 1019.7
20260503022913 57 2 0.9 0.9 0.00 0.00 0.00 63 1019.8
20260503022408 57 31 0.9 0.9 0.00 0.00 0.00 63 1019.8
20260503021904 57 358 0.9 0.9 0.00 0.00 0.00 62 1019.9
20260503021401 57 16 1.7 1.7 0.00 0.00 0.00 62 1019.8
20260503020858 57 33 1.7 1.7 0.00 0.00 0.00 61 1019.8
20260503020356 57 358 1.7 1.7 0.00 0.00 0.00 61 1019.9
20260503015852 57 22 1.7 1.7 0.00 0.00 0.00 61 1020.0
20260503015349 57 15 0.9 1.7 0.00 0.00 0.00 61 1020.0
20260503014844 57 181 0.0 0.9 0.00 0.00 0.00 62 1020.1
20260503014343 57 318 0.0 0.0 0.00 0.00 0.00 62 1020.1
20260503013840 57 324 1.7 1.7 0.00 0.00 0.00 62 1019.9
20260503013337 57 73 0.0 0.0 0.00 0.00 0.00 61 1020.0
20260503012834 57 223 0.0 0.0 0.00 0.00 0.00 61 1020.0
20260503012332 57 130 0.0 0.0 0.00 0.00 0.00 62 1020.1
20260503011828 58 41 0.9 0.9 0.00 0.00 0.00 63 1020.2
20260503011325 58 6 0.9 0.9 0.00 0.00 0.00 62 1020.3
20260503010821 58 3 0.0 0.0 0.00 0.00 0.00 62 1020.2
20260503010319 57 24 0.9 1.7 0.00 0.00 0.00 63 1020.3
20260503005815 57 51 0.9 0.9 0.00 0.00 0.00 66 1020.2
20260503005313 57 32 0.9 0.9 0.00 0.00 0.00 66 1020.2
20260503004809 57 29 0.0 0.9 0.00 0.00 0.00 67 1020.4
20260503004307 57 178 0.0 0.0 0.00 0.00 0.00 67 1020.6
20260503003804 57 105 0.0 0.0 0.00 0.00 0.00 66 1020.3
20260503003301 57 33 0.9 0.9 0.00 0.00 0.00 66 1020.4
20260503002758 57 94 0.0 0.9 0.00 0.00 0.00 65 1020.5
20260503002255 57 358 0.0 0.9 0.00 0.00 0.00 63 1020.5
20260503001751 57 201 0.0 0.0 0.00 0.00 0.00 62 1020.5
20260503001247 58 197 0.0 0.0 0.00 0.00 0.00 60 1020.6
20260503000745 58 197 0.0 0.0 0.00 0.00 0.00 59 1020.6
20260503000242 58 197 0.0 0.0 0.00 0.00 0.00 59 1020.6
20260502235739 58 197 0.0 0.0 0.00 0.00 0.00 60 1020.7
20260502235237 58 197 0.0 0.0 0.00 0.00 0.00 60 1020.6
20260502234733 58 197 0.0 0.0 0.00 0.00 0.00 60 1020.7
20260502234230 58 196 0.0 0.0 0.00 0.00 0.00 61 1020.7
20260502233726 58 195 0.0 0.0 0.00 0.00 0.00 62 1020.8
20260502233223 58 195 0.0 0.0 0.00 0.00 0.00 62 1020.8
20260502232719 58 190 0.0 0.0 0.00 0.00 0.00 62 1020.7
20260502232216 58 184 0.0 0.0 0.00 0.00 0.00 62 1020.9
20260502231713 58 183 0.0 0.0 0.00 0.00 0.00 61 1020.7
20260502231211 58 182 0.0 0.0 0.00 0.00 0.00 61 1020.8
20260502230709 59 165 0.0 0.0 0.00 0.00 0.00 61 1020.8
20260502230207 59 158 0.0 0.0 0.00 0.00 0.00 61 1020.9
20260502225702 59 132 0.0 0.9 0.00 0.00 0.00 61 1020.7
20260502225200 59 175 0.0 0.0 0.00 0.00 0.00 61 1020.8
20260502224656 59 175 0.0 0.0 0.00 0.00 0.00 60 1021.1
20260502224153 59 167 0.0 0.0 0.00 0.00 0.00 59 1021.1
20260502223651 60 59 0.0 0.9 0.00 0.00 0.00 59 1021.2
20260502223149 60 49 0.0 0.9 0.00 0.00 0.00 59 1021.1
20260502222646 59 37 0.9 0.9 0.00 0.00 0.00 60 1020.8
20260502222143 59 16 1.7 1.7 0.00 0.00 0.00 61 1020.8
20260502221638 59 11 2.6 2.6 0.00 0.00 0.00 62 1021.0
20260502221135 59 29 1.7 1.7 0.00 0.00 0.00 62 1021.0
20260502220631 59 2 2.6 2.6 0.00 0.00 0.00 61 1021.1
20260502220122 60 37 0.9 0.9 0.00 0.00 0.00 61 1020.9
20260502215619 60 11 1.7 1.7 0.00 0.00 0.00 60 1021.1
20260502215116 60 341 0.9 1.7 0.00 0.00 0.00 58 1021.0
20260502214607 61 340 0.0 0.9 0.00 0.00 0.00 55 1021.0
20260502214105 61 45 0.0 0.0 0.00 0.00 0.00 53 1021.1
20260502213602 61 354 0.0 0.9 0.00 0.00 0.00 51 1021.1
20260502213059 62 31 0.0 0.0 0.00 0.00 0.00 50 1021.1
20260502212558 62 11 0.9 1.7 0.00 0.00 0.00 49 1020.9
20260502212055 62 29 1.7 1.7 0.00 0.00 0.00 49 1021.0
20260502211551 62 349 2.6 2.6 0.00 0.00 0.00 49 1020.9
20260502211048 62 21 2.6 2.6 0.00 0.00 0.00 51 1021.0
20260502210545 62 10 1.7 1.7 0.00 0.00 0.00 51 1021.0
20260502210042 62 13 1.7 1.7 0.00 0.00 0.00 51 1021.1
20260502205538 62 355 2.6 4.3 0.00 0.00 0.00 50 1020.9
20260502205036 62 18 0.9 1.7 0.00 0.00 0.00 50 1021.0
20260502204532 62 5 1.7 2.6 0.00 0.00 0.00 50 1021.0
20260502204030 62 7 2.6 2.6 0.00 0.00 0.00 50 1020.9
20260502203527 62 34 2.6 2.6 0.00 0.00 0.00 50 1021.0
20260502203024 62 25 1.7 1.7 0.00 0.00 0.00 50 1021.1
20260502202520 62 46 0.9 0.9 0.00 0.00 0.00 50 1020.9
20260502202019 62 162 0.0 0.0 0.00 0.00 0.00 51 1021.2
20260502201514 61 202 0.0 0.0 0.00 0.00 0.00 51 1021.2
20260502201011 62 351 0.0 0.0 0.00 0.00 0.00 52 1021.2
20260502200507 62 353 0.0 0.0 0.00 0.00 0.00 52 1021.2
20260502200005 62 348 0.0 0.0 0.00 0.00 0.00 51 1021.3
20260502195502 62 21 0.0 0.0 0.00 0.00 0.00 51 1021.2
20260502194958 62 17 0.0 0.0 0.00 0.00 0.00 51 1021.1
20260502194455 62 11 0.0 0.9 0.00 0.00 0.00 50 1021.1
20260502193950 62 175 0.0 0.0 0.00 0.00 0.00 50 1021.0
20260502193448 63 194 0.0 0.0 0.00 0.00 0.00 49 1021.0
20260502192944 63 159 0.0 0.0 0.00 0.00 0.00 49 1021.2
20260502192441 63 180 0.0 0.0 0.00 0.00 0.00 48 1020.8
20260502191938 64 198 0.0 0.0 0.00 0.00 0.00 47 1020.8
20260502191435 64 203 0.0 0.0 0.00 0.00 0.00 47 1021.0
20260502190933 64 201 0.0 0.0 0.00 0.00 0.00 47 1021.0
20260502190430 64 201 0.0 0.0 0.00 0.00 0.00 46 1020.8
20260502185926 65 191 0.0 0.0 0.00 0.00 0.00 45 1020.8
20260502185421 65 194 0.9 0.9 0.00 0.00 0.00 45 1020.8
20260502184919 64 188 0.0 0.9 0.00 0.00 0.00 45 1020.6
20260502184414 64 140 0.9 0.9 0.00 0.00 0.00 47 1020.7
20260502183911 64 198 0.0 0.0 0.00 0.00 0.00 46 1020.6
20260502183407 64 186 0.0 0.0 0.00 0.00 0.00 46 1020.3
20260502182903 65 183 0.0 0.0 0.00 0.00 0.00 46 1020.4
20260502182358 65 183 0.0 0.0 0.00 0.00 0.00 45 1020.5
20260502181855 65 190 0.0 0.0 0.00 0.00 0.00 46 1020.5
20260502181354 65 197 0.0 0.0 0.00 0.00 0.00 46 1020.6
20260502180851 66 168 0.0 0.0 0.00 0.00 0.00 45 1020.4
20260502180348 66 203 0.0 0.0 0.00 0.00 0.00 44 1020.3
20260502170306 71 194 0.0 0.0 0.00 0.00 0.00 39 1020.4
20260502164254 72 190 0.0 0.0 0.00 0.00 0.00 39 1020.3
20260502163749 72 196 0.0 0.0 0.00 0.00 0.00 38 1020.3
20260502163241 72 201 0.0 0.0 0.00 0.00 0.00 38 1020.4
20260502162738 72 214 0.0 0.9 0.00 0.00 0.00 38 1020.5
20260502162235 72 199 0.0 0.0 0.00 0.00 0.00 38 1020.4
20260502161732 72 196 0.0 0.0 0.00 0.00 0.00 38 1020.4
20260502161228 72 191 0.0 0.0 0.00 0.00 0.00 38 1020.6
20260502160726 73 177 0.9 0.9 0.00 0.00 0.00 37 1020.7
20260502160225 73 193 0.0 0.9 0.00 0.00 0.00 37 1020.5
20260502152149 76 171 0.9 0.9 0.00 0.00 0.00 34 1020.9
20260502151647 76 215 0.0 0.0 0.00 0.00 0.00 34 1020.9
20260502151144 78 213 0.0 0.0 0.00 0.00 0.00 32 1020.9
20260502150641 79 205 0.9 0.9 0.00 0.00 0.00 31 1020.9
20260502150137 79 212 0.0 0.0 0.00 0.00 0.00 30 1020.7
20260502130526 75 194 0.0 0.9 0.00 0.00 0.00 35 1022.2
20260502123509 75 193 0.0 0.0 0.00 0.00 0.00 35 1022.7
20260502123005 75 186 1.7 4.3 0.00 0.00 0.00 35 1022.8
20260502122502 76 171 1.7 2.6 0.00 0.00 0.00 34 1022.7
20260502122000 77 277 2.6 4.3 0.00 0.00 0.00 33 1022.7
20260502121457 76 196 0.9 1.7 0.00 0.00 0.00 35 1022.8
20260502120954 77 230 1.7 2.6 0.00 0.00 0.00 34 1022.8
20260502120450 78 203 0.0 0.0 0.00 0.00 0.00 34 1022.9
20260502115445 77 204 0.0 0.0 0.00 0.00 0.00 33 1023.0
20260502114941 77 204 0.9 0.9 0.00 0.00 0.00 34 1023.0
20260502114438 76 182 0.9 0.9 0.00 0.00 0.00 35 1023.2
20260502113935 75 179 0.0 0.0 0.00 0.00 0.00 35 1023.3
20260502113432 74 200 0.9 2.6 0.00 0.00 0.00 35 1023.2
20260502112931 74 196 0.0 0.0 0.00 0.00 0.00 36 1023.0
20260502112428 74 188 0.9 1.7 0.00 0.00 0.00 35 1023.3
20260502111926 74 189 0.9 1.7 0.00 0.00 0.00 35 1023.5
20260502111422 74 201 0.9 1.7 0.00 0.00 0.00 36 1023.6
20260502110920 74 179 0.0 0.9 0.00 0.00 0.00 37 1023.5
20260502110418 75 185 1.7 1.7 0.00 0.00 0.00 35 1023.6
20260502105915 74 220 0.9 0.9 0.00 0.00 0.00 36 1023.6
20260502105412 73 212 0.0 0.0 0.00 0.00 0.00 37 1023.8
20260502104910 74 193 0.0 0.9 0.00 0.00 0.00 36 1023.8
20260502104406 74 193 0.0 0.9 0.00 0.00 0.00 36 1023.8
20260502103904 75 217 0.0 0.9 0.00 0.00 0.00 35 1023.8
20260502103402 76 211 0.9 0.9 0.00 0.00 0.00 34 1023.9
20260502102858 76 207 0.0 0.0 0.00 0.00 0.00 32 1023.9
20260502102355 76 183 0.0 0.0 0.00 0.00 0.00 32 1024.0
20260502101852 75 190 0.0 0.0 0.00 0.00 0.00 34 1024.0
20260502101351 75 208 0.9 1.7 0.00 0.00 0.00 33 1024.1
20260502100848 75 200 0.9 1.7 0.00 0.00 0.00 32 1024.3
20260502100348 75 196 0.0 0.0 0.00 0.00 0.00 34 1024.0
20260502091321 73 213 0.0 0.0 0.00 0.00 0.00 38 1024.8
20260502090819 73 169 0.0 0.0 0.00 0.00 0.00 37 1024.9
20260502090315 73 213 0.0 0.0 0.00 0.00 0.00 38 1025.0